Showing default

CUBEL, 47448

Orbit data source: Space-Track

CUBEL, 47448 is a payload satellite in SSO that was launched on Sun, 24 Jan 2021 UTC via an FALCON 9 launch vehicle from the Air Force Eastern Test Range (AFETR). Payload-class satellites include a variety of spacecraft equipped with specific instruments for various scientific and technological missions. These include communications satellites like Starlink; space stations such as the ISS; scientific satellites like the Hubble; Earth observation satellites from companies like Planet Labs, Umbra, and HawkEye 360; GPS; miniature CubeSats for education and research; and military/defense satellites.

Loading next visibility...
Identifier
47448, 2021-006AM
Orbit
SSO
Last TLE update
8 hours ago
Origin
Manufacturer
DLR2/GOMSP
Mission
Operational Civil Technology
Bus & Motor
CUBESAT 3U, Unknown motor
Mass
4 kg wet, 4 kg dry
Launch date (UTC)
2021-01-24 (4 years ago)
Launch vehicle
FALCON 9
Launch site
Air Force Eastern Test Range (AFETR)
Object type
Payload
Rocket body
Debris
Shape & HBR
Box, Unknown HBR
Radar Cross Section
0.035 m², Small (<0.1 m²)

Expand to show TLE details & history

TLE from 8 hours ago
0 CUBEL
1 47448U 21006AM  25139.12023577  .00007569  00000-0  25631-3 0  9990
2 47448  97.2896 189.7227 0009799 143.3203 216.8711 15.30820263239253
Epoch: 2025-05-19T02:53Z
TLE epoch observation values (Epoch: 2025-05-19T02:53:08.37Z)
Latitude
-0.00001°
Longitude
-90.59959°
Altitude
481.847 km
Speed
7.622 km/s
True Right ascension
12h 38m 53s
True Declination
0° 00' 00"
Sunlit
Object was in full shadow at epoch
Visualization orbit readout
Latitude
64.6421°
Longitude
105.31186°
Altitude
478.575 km
Speed
7.636 km/s
Apparent Right ascension
05h 53m 32s
Apparent Declination
20° 57' 28"
Sunlit
Object is in daylight
Visualization observer readout
Local Sidereal Time
20:02:42
Azimuth
32.577° NE
Elevation
-22.082°
Doppler factor
1
Orbital elements
Apogee altitude
477.021 km
Perigee altitude
463.599 km
Semi-major axis
6,848.447 km
Eccentricity
0.00098
Inclination
97.2896°
RAAN
189.7227°
Arg. of periapsis
143.3203°
True anomaly
Unknown
Mean anomaly
216.8711°
Eccentric anomaly
Unknown
Mean motion
3.82961 °/min
Orbital period
94 mins
BSTAR
0.00025631
Loading maneuver chart data...
Loading SW <> Apogee altitude chart data...

CUBEL Visibility forecast

Observer location: undefined°, undefined°

Span
Click to sort rows by Start time (UTC) header in descending order
Start Az.
Max El. time (UTC)
Max El. Az.
Max El.
End time (UTC)
End Az.
6 mins2025-05-19 15:59:40.080Z21.195° NNE2025-05-19 16:02:40.080Z91.574° ESE40.05°2025-05-19 16:05:40.080Z178.482° S
4 mins2025-05-20 04:07:40.080Z225.275° WSW2025-05-20 04:09:40.080Z272.629° WNW20.895°2025-05-20 04:11:40.080Z312.454° NW
|